Voltar ao catálogo

STARLINK-36808

AtivoComunicaçõesSSO
NORAD 67881·PAYLOAD·🇺🇸 United States

Lançado Feb 21, 2026 de Vandenberg Space Force Base

Loading…

Próximas Passagens (próximas 24 horas)

TLE

AtualizadoSource: CelesTrak SupGP

Época: Sep 14, 2026, 21:08 UTC

1 67881C 26035C   26257.88104167 -.00050261  00000+0 -15606-2 0  2575
2 67881  97.2846 189.8413 0002154  92.8910 274.4500 15.33456017    11

Acompanhe STARLINK-36808 em tempo real com AllMySat

Download on the App Store